Torna al catalogo

STARLINK-30954

AttivoComunicazioniVLEO
NORAD 58407·PAYLOAD·🇺🇸 United States

Lanciato Nov 22, 2023 da Cape Canaveral Space Force Station

Loading…

Prossimi Passaggi (prossime 24 ore)

TLE

AggiornatoSource: CelesTrak SupGP

Epoca: Sep 15, 2026, 02:22 UTC

1 58407C 23180F   26258.09909722 -.00016648  00000+0 -60281-3 0  2583
2 58407  43.0004  62.7528 0001563 273.7335 134.3763 15.27596314    13

Traccia STARLINK-30954 in tempo reale con AllMySat

Download on the App Store